Location: Bois de la Silve
(44.4667°N, 6.7833°E)
Time: 11:00:00
(UTC+00:00)

Sich 1 Rocket - Pass Details

Date: 14 July 2020
Orbit: 615 x 653 km, 82.5° (Epoch: 05 August)

Event Time Altitude Azimuth Distance (km) Brightness Sun altitude
Exits shadow 03:15:02 - 184° (S) 3,002 6.7 -7.6°
Rises 03:15:09 0° 184° (S) 2,952 6.6 -7.5°
Reaches altitude 10° 03:17:24 10° 184° (S) 2,042 5.8 -7.2°
Maximum altitude 03:21:56 82° 97° (E) 655 3.8 -6.6°
Drops below altitude 10° 03:26:28 10° 10° (N) 2,037 7.0 -6.0°
Sets 03:28:42 0° 10° (N) 2,944 7.9 -5.7°
